Surface/Precipitation History
12/19/2014 23:09  to  12/20/2014 23:09
Change End Date:
Date/Time
(MST)
Sf
Temp Chem Water Layer Surface Precipitation
Sf Sub Frz Factor Pct Depth IcePct Cond Salin Type Intens Accum Rate
12/20/2014 22:55 Chemically Wet 27.1F 30F 3F 95 50% 0.00 in 0% 2006 mhos 15000 Yes - - -
12/20/2014 22:53 Chemically Wet 27.3F 30F 3F 95 50% 0.00 in 0% 2006 mhos 15000 None None - -
12/20/2014 22:42 Chemically Wet 27.7F 30F 3F 95 50% 0.00 in 0% 2006 mhos 15000 None None - -
12/20/2014 22:32 Chemically Wet 27.7F 30F 3F 95 50% 0.00 in 0% 2006 mhos 15000 Yes - - -
12/20/2014 22:25 Chemically Wet 27.7F 30F 3F 85 50% 0.00 in 0% 2007 mhos 15000 Yes - - -
12/20/2014 22:22 Chemically Wet 27.7F 30F 3F 90 50% 0.00 in 0% 2007 mhos 15000 Yes - - -
12/20/2014 22:12 Chemically Wet 27.9F 30F 3F 90 50% 0.00 in 0% 2007 mhos 15000 None None - -
12/20/2014 22:02 Chemically Wet 27.9F 30F 3F 90 50% 0.00 in 0% 2007 mhos 15000 Yes - - -
12/20/2014 21:55 Chemically Wet 27.7F 30F 3F 90 50% 0.00 in 0% 2007 mhos 15000 None None - -
12/20/2014 21:52 Chemically Wet 27.7F 30F 3F 90 50% 0.00 in 0% 2007 mhos 15000 Yes - - -
12/20/2014 21:42 Chemically Wet 27.9F 30F 3F 95 50% 0.00 in 0% 2007 mhos 15000 Yes - - -
12/20/2014 21:32 Chemically Wet 27.9F 30F 3F 95 50% 0.00 in 0% 2006 mhos 15000 Yes - - -
12/20/2014 21:26 Chemically Wet 27.9F 30F 3F 95 50% 0.00 in 0% 2006 mhos 15000 Yes - - -
12/20/2014 21:22 Chemically Wet 27.9F 30F 3F 95 50% 0.00 in 0% 2006 mhos 15000 Yes - - -
12/20/2014 21:12 Chemically Wet 27.7F 30F 3F 95 50% 0.00 in 0% 3029 mhos 15000 None None - -
Date/Time
(MST)
Sf
Temp Chem Water Layer Surface Precipitation
Sf Sub Frz Factor Pct Depth IcePct Cond Salin Type Intens Accum Rate
12/20/2014 21:02 Chemically Wet 27.9F 30F 3F 95 50% 0.00 in 0% 3030 mhos 15000 None None - -
12/20/2014 20:55 Chemically Wet 27.9F 30F 3F 95 50% 0.00 in 0% 3029 mhos 15000 None None - -
12/20/2014 20:52 Chemically Wet 27.9F 30F 3F 95 50% 0.00 in 0% 3029 mhos 15000 Yes - - -
12/20/2014 20:42 Chemically Wet 27.9F 30F 3F 95 50% 0.00 in 0% 2004 mhos 15000 Yes - - -
12/20/2014 20:32 Chemically Wet 27.9F 30F 3F 95 50% 0.00 in 0% 3029 mhos 15000 None None - -
12/20/2014 20:26 Chemically Wet 27.7F 30F 3F 95 50% 0.00 in 0% 3029 mhos 15000 None None - -
12/20/2014 20:22 Chemically Wet 27.9F 30F 3F 95 50% 0.00 in 0% 2004 mhos 15000 None None - -
12/20/2014 20:12 Chemically Wet 27.9F 30F 3F 95 50% 0.00 in 0% 3030 mhos 15000 Yes - - -
12/20/2014 20:02 Chemically Wet 27.7F 30F 3F 95 50% 0.00 in 0% 3029 mhos 15000 None None - -
12/20/2014 19:55 Chemically Wet 27.5F 30F 3F 95 50% 0.00 in 0% 3028 mhos 15000 None None - -
12/20/2014 19:52 Chemically Wet 27.5F 30F 3F 95 50% 0.00 in 0% 3028 mhos 15000 None None - -
12/20/2014 19:42 Chemically Wet 27.5F 30F 3F 95 50% 0.00 in 0% 2003 mhos 15000 None None - -
12/20/2014 19:32 Chemically Wet 27.9F 30F 3F 95 50% 0.00 in 0% 3028 mhos 15000 None None - -
12/20/2014 19:25 Chemically Wet 27.9F 30F 3F 95 50% 0.00 in 0% 2003 mhos 15000 None None - -
12/20/2014 19:22 Chemically Wet 27.9F 30F 3F 95 50% 0.00 in 0% 3028 mhos 15000 None None - -
Date/Time
(MST)
Sf
Temp Chem Water Layer Surface Precipitation
Sf Sub Frz Factor Pct Depth IcePct Cond Salin Type Intens Accum Rate
12/20/2014 19:11 Chemically Wet 28.0F 30F 3F 95 50% 0.00 in 0% 3028 mhos 15000 None None - -
12/20/2014 19:01 Chemically Wet 28.2F 30F 3F 95 50% 0.00 in 0% 3028 mhos 15000 None None - -
12/20/2014 18:55 Chemically Wet 28.0F 30F 3F 95 50% 0.00 in 0% 3028 mhos 15000 None None - -
12/20/2014 18:51 Chemically Wet 28.2F 30F 3F 95 50% 0.00 in 0% 2003 mhos 15000 None None - -
12/20/2014 18:41 Chemically Wet 28.4F 30F 3F 95 50% 0.00 in 0% 2003 mhos 15000 Yes - - -
12/20/2014 18:31 Chemically Wet 28.2F 30F 3F 95 50% 0.00 in 0% 2003 mhos 15000 Yes - - -
12/20/2014 18:25 Ice Warning 28.6F 30F 31F 95 2% - 90% 5 mhos 693 None None - -
12/20/2014 18:21 Chemically Wet 28.6F 30F 3F 95 50% 0.00 in 0% 2003 mhos 15000 Yes - - -
12/20/2014 18:11 Chemically Wet 28.6F 30F 3F 95 50% 0.00 in 0% 2004 mhos 15000 None None - -
12/20/2014 18:01 Chemically Wet 28.8F 30F 3F 95 50% 0.00 in 0% 2000 mhos 15000 None None - -
12/20/2014 17:55 Chemically Wet 28.8F 30F 3F 95 50% 0.00 in 0% 2001 mhos 15000 None None - -
12/20/2014 17:51 Chemically Wet 28.9F 30F 3F 95 50% 0.00 in 0% 2001 mhos 15000 None None - -
12/20/2014 17:41 Chemically Wet 28.9F 30F 3F 95 50% 0.00 in 0% 2002 mhos 15000 None None - -
12/20/2014 17:31 Chemically Wet 29.1F 30F 3F 95 50% 0.00 in 0% 2003 mhos 15000 None None - -
12/20/2014 17:25 Chemically Wet 29.1F 30F 3F 95 50% 0.00 in 0% 2003 mhos 15000 None None - -
Date/Time
(MST)
Sf
Temp Chem Water Layer Surface Precipitation
Sf Sub Frz Factor Pct Depth IcePct Cond Salin Type Intens Accum Rate
12/20/2014 17:21 Chemically Wet 29.1F 30F 3F 95 50% 0.00 in 0% 2003 mhos 15000 None None - -
12/20/2014 17:11 Chemically Wet 29.3F 30F 3F 95 50% 0.00 in 0% 2004 mhos 15000 None None - -
12/20/2014 17:10 Chemically Wet 29.3F 30F 3F 95 50% 0.00 in 0% 2004 mhos 15000 None None - -
12/20/2014 17:01 Chemically Wet 29.1F 30F 3F 95 50% 0.00 in 0% 2004 mhos 15000 None None - -
12/20/2014 16:55 Chemically Wet 29.3F 30F 3F 95 50% 0.00 in 0% 2004 mhos 15000 None None - -
12/20/2014 16:51 Chemically Wet 29.3F 30F 3F 95 50% 0.00 in 0% 2003 mhos 15000 None None - -
12/20/2014 16:41 Chemically Wet 29.7F 30F 3F 95 50% 0.00 in 0% 2002 mhos 15000 None None - -
12/20/2014 16:40 Chemically Wet 29.5F 30F 3F 95 50% 0.00 in 0% 2002 mhos 15000 None None - -
12/20/2014 16:31 Chemically Wet 30.0F 30F 3F 95 50% 0.00 in 0% 2002 mhos 15000 None None - -
12/20/2014 16:25 Chemically Wet 30.4F 30F 3F 95 50% 0.00 in 0% 2003 mhos 15000 None None - -
12/20/2014 16:21 Chemically Wet 30.6F 30F 3F 95 50% 0.00 in 0% 2002 mhos 15000 None None - -
12/20/2014 16:11 Chemically Wet 31.1F 30F 3F 95 50% 0.00 in 0% 2002 mhos 15000 None None - -
12/20/2014 16:10 Chemically Wet 31.1F 30F 3F 95 50% 0.00 in 0% 2003 mhos 15000 None None - -
12/20/2014 16:01 Chemically Wet 31.5F 30F 3F 95 50% 0.00 in 0% 2004 mhos 15000 None None - -
12/20/2014 15:55 Chemically Wet 31.8F 30F 3F 95 50% 0.00 in 0% 2005 mhos 15000 None None - -
Date/Time
(MST)
Sf
Temp Chem Water Layer Surface Precipitation
Sf Sub Frz Factor Pct Depth IcePct Cond Salin Type Intens Accum Rate
12/20/2014 15:51 Chemically Wet 31.8F 30F 3F 95 50% 0.00 in 0% 1499 mhos 15000 None None - -
12/20/2014 15:40 Chemically Wet 31.6F 30F 3F 75 50% 0.00 in 0% 1500 mhos 15000 None None - -
12/20/2014 15:30 Wet 32.4F 30F 3F 30 50% 0.00 in 0% 1502 mhos 15000 None None - -
12/20/2014 15:25 Wet 32.9F 30F 3F 5 50% 0.00 in 0% 1502 mhos 15000 None None - -
12/20/2014 15:20 Wet 33.3F 30F 3F 5 50% 0.70 in 0% 1432 mhos 15000 None None - -
12/20/2014 15:10 Wet 34.2F 30F 3F 5 50% 0.70 in 0% 1916 mhos 15000 None None - -
12/20/2014 15:00 Wet 36.0F 30F 3F 5 50% 0.70 in 0% 1916 mhos 15000 None None - -
12/20/2014 14:55 Wet 36.1F 30F 3F 5 50% 0.70 in 0% 1916 mhos 15000 None None - -
12/20/2014 14:50 Wet 36.0F 30F 3F 5 50% 0.70 in 0% 1916 mhos 15000 None None - -
12/20/2014 14:40 Wet 34.3F 30F 3F 30 50% 0.00 in 0% 2009 mhos 15000 None None - -
12/20/2014 14:30 Wet 34.0F 30F 3F 55 50% 0.00 in 0% 3034 mhos 15000 None None - -
12/20/2014 14:26 Wet 33.8F 30F 3F 65 50% 0.00 in 0% 3033 mhos 15000 None None - -
12/20/2014 14:20 Wet 34.2F 30F 3F 65 50% 0.00 in 0% 3033 mhos 15000 None None - -
12/20/2014 14:10 Wet 34.5F 30F 3F 50 50% 0.00 in 0% 2009 mhos 15000 None None - -
12/20/2014 14:00 Wet 34.9F 30F 3F 70 50% 0.00 in 0% 3033 mhos 15000 None None - -
Date/Time
(MST)
Sf
Temp Chem Water Layer Surface Precipitation
Sf Sub Frz Factor Pct Depth IcePct Cond Salin Type Intens Accum Rate
12/20/2014 13:55 Wet 35.1F 30F 3F 85 50% 0.00 in 0% 3033 mhos 15000 None None - -
12/20/2014 13:50 Wet 34.5F 30F 3F 95 50% 0.00 in 0% 3032 mhos 15000 None None - -
12/20/2014 13:40 Wet 34.7F 30F 3F 95 50% 0.00 in 0% 3027 mhos 15000 None None - -
12/20/2014 13:30 Wet 33.4F 30F 3F 95 50% 0.00 in 0% 3022 mhos 15000 None None - -
12/20/2014 13:26 Wet 33.1F 30F 3F 95 50% 0.00 in 0% 3021 mhos 15000 None None - -
12/20/2014 13:20 Wet 33.3F 30F 3F 95 50% 0.00 in 0% 3018 mhos 15000 None None - -
12/20/2014 13:10 Wet 32.9F 30F 3F 95 50% 0.00 in 0% 3012 mhos 15000 None None - -
12/20/2014 13:00 Wet 32.4F 30F 3F 95 50% 0.00 in 0% 3009 mhos 15000 None None - -
12/20/2014 12:56 Chemically Wet 31.6F 30F 3F 95 50% 0.00 in 0% 3008 mhos 15000 None None - -
12/20/2014 12:50 Chemically Wet 31.8F 30F 3F 95 50% 0.00 in 0% 3007 mhos 15000 None None - -
12/20/2014 12:40 Wet 32.4F 30F 3F 95 50% 0.00 in 0% 3002 mhos 15000 None None - -
12/20/2014 12:30 Wet 32.7F 30F 3F 95 50% 0.00 in 0% 3001 mhos 15000 None None - -
12/20/2014 12:26 Wet 33.3F 30F 3F 95 50% 0.00 in 0% 6149 mhos 15000 None None - -
12/20/2014 12:20 Wet 32.9F 30F 3F 95 50% 0.00 in 0% 6146 mhos 15000 None None - -
12/20/2014 12:10 Wet 32.7F 30F 3F 95 50% 0.00 in 0% 6151 mhos 15000 None None - -
Date/Time
(MST)
Sf
Temp Chem Water Layer Surface Precipitation
Sf Sub Frz Factor Pct Depth IcePct Cond Salin Type Intens Accum Rate
12/20/2014 12:00 Chemically Wet 31.6F 30F 3F 95 50% 0.00 in 0% 6146 mhos 15000 None None - -
12/20/2014 11:56 Chemically Wet 31.5F 30F 3F 95 50% 0.00 in 0% 2984 mhos 15000 None None - -
12/20/2014 11:49 Chemically Wet 30.9F 30F 3F 95 50% 0.00 in 0% 6148 mhos 15000 None None - -
12/20/2014 11:39 Chemically Wet 30.6F 30F 3F 95 50% 0.00 in 0% 6157 mhos 15000 None None - -
12/20/2014 11:29 Chemically Wet 30.0F 30F 3F 95 50% 0.00 in 0% 6141 mhos 15000 None None - -
12/20/2014 11:26 Chemically Wet 29.8F 30F 3F 95 50% 0.00 in 0% 6154 mhos 15000 None None - -
12/20/2014 11:19 Chemically Wet 29.1F 30F 3F 95 50% 0.00 in 0% 6154 mhos 15000 None None - -
12/20/2014 11:09 Chemically Wet 28.8F 30F 3F 95 50% 0.00 in 0% 6157 mhos 15000 None None - -
12/20/2014 10:59 Chemically Wet 28.6F 30F 3F 95 50% 0.00 in 0% 3006 mhos 15000 None None - -
12/20/2014 10:55 Chemically Wet 28.2F 30F 3F 95 50% 0.00 in 0% 6158 mhos 15000 None None - -
12/20/2014 10:49 Chemically Wet 27.9F 30F 3F 95 50% 0.00 in 0% 6159 mhos 15000 None None - -
12/20/2014 10:40 Chemically Wet 27.5F 30F 3F 95 50% 0.00 in 0% 6163 mhos 15000 None None - -
12/20/2014 10:39 Chemically Wet 27.5F 30F 3F 95 50% 0.00 in 0% 6163 mhos 15000 None None - -
12/20/2014 10:29 Chemically Wet 27.7F 30F 3F 95 50% 0.00 in 0% 6158 mhos 15000 None None - -
12/20/2014 10:19 Chemically Wet 27.5F 30F 3F 95 50% 0.00 in 0% 6159 mhos 15000 None None - -
Date/Time
(MST)
Sf
Temp Chem Water Layer Surface Precipitation
Sf Sub Frz Factor Pct Depth IcePct Cond Salin Type Intens Accum Rate
12/20/2014 10:10 Chemically Wet 27.1F 30F 3F 95 50% 0.00 in 0% 6155 mhos 15000 None None - -
12/20/2014 10:09 Chemically Wet 27.1F 30F 3F 95 50% 0.00 in 0% 6148 mhos 15000 None None - -
12/20/2014 09:59 Chemically Wet 26.8F 30F 3F 95 50% 0.00 in 0% 6144 mhos 15000 Yes - - -
12/20/2014 09:55 Chemically Wet 26.6F 30F 3F 95 50% 0.00 in 0% 6136 mhos 15000 Yes - - -
12/20/2014 09:49 Chemically Wet 26.4F 30F 3F 95 50% 0.00 in 0% 6136 mhos 15000 Yes - - -
12/20/2014 09:40 Chemically Wet 26.1F 30F 3F 95 50% 0.00 in 0% 6122 mhos 15000 None None - -
12/20/2014 09:39 Chemically Wet 26.1F 30F 3F 95 50% 0.00 in 0% 6126 mhos 15000 None None - -
12/20/2014 09:29 Chemically Wet 25.9F 30F 3F 95 50% 0.00 in 0% 6133 mhos 15000 None None - -
12/20/2014 09:25 Chemically Wet 25.7F 30F 3F 95 50% 0.00 in 0% 6133 mhos 15000 Yes - - -
12/20/2014 09:19 Chemically Wet 25.7F 30F 3F 95 50% 0.00 in 0% 6133 mhos 15000 None None - -
12/20/2014 09:10 Chemically Wet 25.7F 30F 3F 95 50% 0.00 in 0% 6136 mhos 15000 None None - -
12/20/2014 09:09 Chemically Wet 25.7F 30F 3F 95 50% 0.00 in 0% 6130 mhos 15000 None None - -
12/20/2014 08:59 Chemically Wet 25.2F 30F 3F 95 50% 0.00 in 0% 6117 mhos 15000 None None - -
12/20/2014 08:55 Chemically Wet 25.2F 30F 3F 95 50% 0.00 in 0% 6112 mhos 15000 None None - -
12/20/2014 08:49 Chemically Wet 25.2F 30F 3F 95 50% 0.00 in 0% 6112 mhos 15000 None None - -
Date/Time
(MST)
Sf
Temp Chem Water Layer Surface Precipitation
Sf Sub Frz Factor Pct Depth IcePct Cond Salin Type Intens Accum Rate
12/20/2014 08:40 Chemically Wet 24.8F 30F 3F 95 50% 0.00 in 0% 6106 mhos 15000 None None - -
12/20/2014 08:39 Chemically Wet 24.8F 30F 3F 95 50% 0.00 in 0% 6106 mhos 15000 None None - -
12/20/2014 08:29 Chemically Wet 24.6F 30F 3F 95 50% 0.00 in 0% 6117 mhos 15000 None None - -
12/20/2014 08:25 Chemically Wet 24.6F 30F 3F 95 50% 0.00 in 0% 6106 mhos 15000 None None - -
12/20/2014 08:19 Chemically Wet 24.6F 30F 3F 95 50% 0.00 in 0% 6106 mhos 15000 None None - -
12/20/2014 08:10 Chemically Wet 24.4F 30F 3F 95 50% 0.00 in 0% 6099 mhos 15000 None None - -
12/20/2014 08:09 Chemically Wet 24.4F 30F 3F 95 50% 0.00 in 0% 6099 mhos 15000 None None - -
12/20/2014 07:59 Chemically Wet 24.3F 30F 3F 95 50% 0.00 in 0% 6099 mhos 15000 None None - -
12/20/2014 07:55 Chemically Wet 24.1F 30F 3F 95 50% 0.00 in 0% 6106 mhos 15000 None None - -
12/20/2014 07:48 Chemically Wet 24.3F 30F 3F 95 50% 0.00 in 0% 6099 mhos 15000 None None - -
12/20/2014 07:38 Chemically Wet 24.1F 30F 3F 95 50% 0.00 in 0% 6106 mhos 15000 None None - -
12/20/2014 07:28 Chemically Wet 23.7F 30F 3F 95 50% 0.00 in 0% 6106 mhos 15000 None None - -
12/20/2014 07:25 Chemically Wet 23.7F 30F 3F 95 50% 0.00 in 0% 6117 mhos 15000 None None - -
12/20/2014 07:18 Chemically Wet 23.9F 30F 3F 95 50% 0.00 in 0% 6126 mhos 15000 None None - -
12/20/2014 07:08 Chemically Wet 24.3F 30F 3F 95 50% 0.00 in 0% 6112 mhos 15000 None None - -
Date/Time
(MST)
Sf
Temp Chem Water Layer Surface Precipitation
Sf Sub Frz Factor Pct Depth IcePct Cond Salin Type Intens Accum Rate
12/20/2014 06:58 Chemically Wet 24.3F 30F 3F 95 50% 0.00 in 0% 6126 mhos 15000 None None - -
12/20/2014 06:56 Chemically Wet 24.3F 30F 3F 95 50% 0.00 in 0% 2976 mhos 15000 None None - -
12/20/2014 06:48 Chemically Wet 24.1F 30F 3F 95 50% 0.00 in 0% 2969 mhos 15000 Yes - - -
12/20/2014 06:38 Chemically Wet 23.9F 30F 3F 95 50% 0.00 in 0% 2979 mhos 15000 None None - -
12/20/2014 06:28 Chemically Wet 24.1F 30F 3F 95 50% 0.00 in 0% 2981 mhos 15000 None None - -
12/20/2014 06:26 Chemically Wet 24.1F 30F 3F 95 50% 0.00 in 0% 2984 mhos 15000 None None - -
12/20/2014 06:18 Chemically Wet 23.9F 30F 3F 95 50% 0.00 in 0% 2984 mhos 15000 None None - -
12/20/2014 06:08 Chemically Wet 23.7F 30F 3F 95 50% 0.00 in 0% 2993 mhos 15000 None None - -
12/20/2014 05:58 Chemically Wet 23.5F 30F 3F 95 50% 0.00 in 0% 3001 mhos 15000 None None - -
12/20/2014 05:56 Chemically Wet 23.5F 30F 3F 95 50% 0.00 in 0% 3005 mhos 15000 None None - -
12/20/2014 05:48 Chemically Wet 23.4F 30F 3F 95 50% 0.00 in 0% 3008 mhos 15000 None None - -
12/20/2014 05:38 Chemically Wet 23.9F 30F 3F 95 50% 0.00 in 0% 1996 mhos 15000 None None - -
12/20/2014 05:28 Chemically Wet 23.9F 30F 3F 95 50% 0.00 in 0% 1996 mhos 15000 None None - -
12/20/2014 05:25 Chemically Wet 23.9F 30F 3F 95 50% 0.00 in 0% 1996 mhos 15000 Yes - - -
12/20/2014 05:18 Chemically Wet 23.9F 30F 3F 95 50% 0.00 in 0% 1996 mhos 15000 Yes - - -
Date/Time
(MST)
Sf
Temp Chem Water Layer Surface Precipitation
Sf Sub Frz Factor Pct Depth IcePct Cond Salin Type Intens Accum Rate
12/20/2014 05:08 Chemically Wet 23.7F 30F 3F 95 50% 0.00 in 0% 1996 mhos 15000 Yes - - -
12/20/2014 04:58 Chemically Wet 23.5F 30F 3F 95 50% 0.00 in 0% 1997 mhos 15000 None None - -
12/20/2014 04:55 Chemically Wet 23.5F 30F 3F 95 50% 0.00 in 0% 1996 mhos 15000 None None - -
12/20/2014 04:47 Chemically Wet 23.4F 30F 3F 95 50% 0.00 in 0% 1997 mhos 15000 None None - -
12/20/2014 04:37 Chemically Wet 23.0F 30F 3F 95 50% 0.00 in 0% 1997 mhos 15000 None None - -
12/20/2014 04:27 Chemically Wet 22.8F 30F 3F 95 50% 0.00 in 0% 1998 mhos 15000 None None - -
12/20/2014 04:25 Chemically Wet 22.8F 30F 3F 95 50% 0.00 in 0% 1998 mhos 15000 None None - -
12/20/2014 04:17 Chemically Wet 22.5F 30F 3F 95 50% 0.00 in 0% 1998 mhos 15000 None None - -
12/20/2014 04:07 Chemically Wet 22.3F 30F 3F 95 50% 0.00 in 0% 1999 mhos 15000 None None - -
12/20/2014 03:57 Chemically Wet 22.3F 30F 3F 95 50% 0.00 in 0% 1999 mhos 15000 None None - -
12/20/2014 03:55 Chemically Wet 22.3F 30F 3F 95 50% 0.00 in 0% 1999 mhos 15000 None None - -
12/20/2014 03:47 Chemically Wet 21.9F 30F 3F 95 50% 0.00 in 0% 1999 mhos 15000 None None - -
12/20/2014 03:37 Chemically Wet 21.4F 30F 3F 95 50% 0.00 in 0% 1999 mhos 15000 None None - -
12/20/2014 03:27 Chemically Wet 21.6F 30F 3F 95 50% 0.00 in 0% 1999 mhos 15000 None None - -
12/20/2014 03:25 Chemically Wet 21.6F 30F 3F 95 50% 0.00 in 0% 1492 mhos 15000 None None - -
Date/Time
(MST)
Sf
Temp Chem Water Layer Surface Precipitation
Sf Sub Frz Factor Pct Depth IcePct Cond Salin Type Intens Accum Rate
12/20/2014 03:17 Chemically Wet 21.6F 30F 3F 95 50% 0.00 in 0% 1491 mhos 15000 None None - -
12/20/2014 03:07 Chemically Wet 22.1F 30F 3F 95 50% 0.00 in 0% 1999 mhos 15000 None None - -
12/20/2014 02:57 Chemically Wet 22.6F 30F 3F 95 50% 0.00 in 0% 1998 mhos 15000 None None - -
12/20/2014 02:55 Chemically Wet 22.6F 30F 3F 95 50% 0.00 in 0% 1998 mhos 15000 None None - -
12/20/2014 02:47 Chemically Wet 22.8F 30F 3F 95 50% 0.00 in 0% 1997 mhos 15000 None None - -
12/20/2014 02:37 Chemically Wet 22.8F 30F 3F 95 50% 0.00 in 0% 1997 mhos 15000 None None - -
12/20/2014 02:27 Chemically Wet 23.7F 30F 3F 95 50% 0.00 in 0% 1996 mhos 15000 None None - -
12/20/2014 02:26 Chemically Wet 23.9F 30F 3F 95 50% 0.00 in 0% 1996 mhos 15000 None None - -
12/20/2014 02:17 Chemically Wet 24.3F 30F 3F 95 50% 0.00 in 0% 1995 mhos 15000 None None - -
12/20/2014 02:07 Chemically Wet 24.4F 30F 3F 95 50% 0.00 in 0% 1994 mhos 15000 None None - -
12/20/2014 01:57 Chemically Wet 24.6F 30F 3F 95 50% 0.00 in 0% 1993 mhos 15000 None None - -
12/20/2014 01:56 Chemically Wet 24.6F 30F 3F 95 50% 0.00 in 0% 1993 mhos 15000 None None - -
12/20/2014 01:47 Chemically Wet 24.6F 30F 3F 95 50% 0.00 in 0% 2001 mhos 15000 None None - -
12/20/2014 01:37 Chemically Wet 24.6F 30F 3F 95 50% 0.00 in 0% 2001 mhos 15000 None None - -
12/20/2014 01:26 Chemically Wet 24.1F 30F 3F 95 50% 0.00 in 0% 2001 mhos 15000 None None - -
Date/Time
(MST)
Sf
Temp Chem Water Layer Surface Precipitation
Sf Sub Frz Factor Pct Depth IcePct Cond Salin Type Intens Accum Rate
12/20/2014 01:25 Chemically Wet 24.1F 30F 3F 95 50% 0.00 in 0% 2001 mhos 15000 None None - -
12/20/2014 01:16 Chemically Wet 24.6F 30F 3F 95 50% 0.00 in 0% 2001 mhos 15000 None None - -
12/20/2014 01:06 Chemically Wet 24.8F 30F 3F 95 50% 0.00 in 0% 2001 mhos 15000 None None - -
12/20/2014 00:56 Chemically Wet 25.3F 30F 3F 95 50% 0.00 in 0% 2001 mhos 15000 None None - -
12/20/2014 00:55 Chemically Wet 25.3F 30F 3F 95 50% 0.00 in 0% 2001 mhos 15000 None None - -
12/20/2014 00:46 Chemically Wet 25.5F 30F 3F 95 50% 0.00 in 0% 2002 mhos 15000 Yes - - -
12/20/2014 00:36 Chemically Wet 25.7F 30F 3F 95 50% 0.00 in 0% 2001 mhos 15000 None None - -
12/20/2014 00:26 Chemically Wet 25.7F 30F 3F 95 50% 0.00 in 0% 2002 mhos 15000 None None - -
12/20/2014 00:25 Chemically Wet 25.7F 30F 3F 95 50% 0.00 in 0% 2002 mhos 15000 None None - -
12/20/2014 00:16 Chemically Wet 25.7F 30F 3F 95 50% 0.00 in 0% 2002 mhos 15000 None None - -
12/20/2014 00:10 Chemically Wet 25.7F 30F 3F 95 50% 0.00 in 0% 2002 mhos 15000 None None - -
12/20/2014 00:06 Chemically Wet 25.7F 30F 3F 95 50% 0.00 in 0% 2003 mhos 15000 None None - -
12/20/2014 00:01 Chemically Wet 25.7F 30F 3F 95 50% 0.00 in 0% 2004 mhos 15000 - - - -
12/19/2014 23:56 Chemically Wet 25.3F 30F 3F 95 50% 0.00 in 0% 2004 mhos 15000 None None - -
12/19/2014 23:46 Chemically Wet 25.3F 30F 3F 95 50% 0.00 in 0% 2004 mhos 15000 None None - -
Date/Time
(MST)
Sf
Temp Chem Water Layer Surface Precipitation
Sf Sub Frz Factor Pct Depth IcePct Cond Salin Type Intens Accum Rate
12/19/2014 23:36 Chemically Wet 25.0F 30F 3F 95 50% 0.00 in 0% 2004 mhos 15000 - - - -
12/19/2014 23:26 Chemically Wet 25.0F 30F 3F 95 50% 0.00 in 0% 2004 mhos 15000 - - - -
12/19/2014 23:25 Chemically Wet 25.0F 30F 3F 95 50% 0.00 in 0% 2004 mhos 15000 None None - -
12/19/2014 23:16 Chemically Wet 24.8F 30F 3F 95 50% 0.00 in 0% 2004 mhos 15000 None None - -
Change End Date:
Copyright © 1998-2005 Surface Systems, Inc.
All Rights Reserved
Send comments about the data to:
SCAN Web ® is a registered trademark of Surface Systems, Inc.
SCAN Web Version 5.6